Location: Dąbrówka
(52.2799°N, 15.8070°E)
Time: 06:43:28
(UTC+02:00)

POLYITAN 1 - Visible Passes

Search period start: 25 June 2019 00:00
Search period end: 05 July 2019 00:00
Orbit: 591 x 613 km, 97.9° (Epoch: 24 June)

Date Brightness Start Highest point End Pass type
(mag) Time Alt. Az. Time Alt. Az. Time Alt. Az.
25 Jun ? 01:15:18 10° NNE 01:19:24 46° E 01:21:54 21° SSE visible
25 Jun ? 02:51:29 10° N 02:54:56 25° WNW 02:58:24 10° WSW visible
26 Jun ? 01:26:58 10° NNE 01:31:10 59° ESE 01:33:45 22° S visible
26 Jun ? 03:03:27 10° NNW 03:06:34 20° WNW 03:09:41 10° WSW visible
27 Jun ? 00:05:47 10° ENE 00:06:26 10° E 00:07:05 10° E visible
27 Jun ? 01:38:40 10° NNE 01:42:56 77° ESE 01:45:36 22° S visible
27 Jun ? 03:15:29 10° NNW 03:18:11 17° WNW 03:20:52 10° W visible
28 Jun ? 00:16:14 10° ENE 00:18:20 13° E 00:20:26 10° ESE visible
28 Jun ? 01:50:24 10° NNE 01:54:40 83° WNW 01:57:28 21° SSW visible
28 Jun ? 03:27:38 10° NNW 03:29:47 14° NW 03:31:53 10° W visible
29 Jun ? 00:27:23 10° NE 00:30:13 17° E 00:32:31 12° SE visible
29 Jun ? 02:02:10 10° N 02:06:23 65° WNW 02:09:19 19° SSW visible
29 Jun ? 03:40:06 10° NW 03:41:21 11° NW 03:42:35 10° WNW visible
30 Jun ? 00:38:46 10° NE 00:42:04 21° E 00:44:22 15° SE visible
30 Jun ? 02:13:57 10° N 02:18:05 51° WNW 02:21:10 17° SW visible
01 Jul ? 00:50:15 10° NE 00:53:54 27° E 00:56:13 17° SE visible
01 Jul ? 02:25:47 10° N 02:29:47 40° WNW 02:33:00 15° SW visible
02 Jul ? 01:01:48 10° NNE 01:05:43 34° E 01:08:04 20° SSE visible
02 Jul ? 02:37:39 10° N 02:41:27 32° WNW 02:44:51 12° SW visible
03 Jul ? 01:13:25 10° NNE 01:17:31 44° E 01:19:54 22° SSE visible
03 Jul ? 02:49:32 10° N 02:53:05 26° WNW 02:56:38 10° WSW visible
04 Jul ? 01:25:04 10° NNE 01:29:18 57° E 01:31:45 24° S visible
04 Jul ? 03:01:29 10° N 03:04:43 21° WNW 03:07:57 10° WSW visible
